SB KEPS @ AMSAT $ORB13276.O Orbital Elements 13276.OSCAR
HR AMSAT ORBITAL ELEMENTS FOR OSCAR SATELLITES FROM WA5QGD FORT WORTH,TX October 3, 2013 BID: ORB13276.O TO ALL RADIO AMATEURS BT
Satellite: AO-07 Catalog number: 07530 Epoch time: 13276.81560454 Element set: 791 Inclination: 101.4436 deg RA of node: 262.4201 deg Eccentricity: 0.0012353 Arg of perigee: 076.1664 deg Mean anomaly: 042.5872 deg Mean motion: 12.53598702 rev/day Decay rate: -5.2e-07 rev/day^2 Epoch rev: 77939 Checksum: 295
Satellite: FO-29 Catalog number: 24278 Epoch time: 13275.75090537 Element set: 214 Inclination: 098.5417 deg RA of node: 319.8677 deg Eccentricity: 0.0349711 Arg of perigee: 245.2809 deg Mean anomaly: 256.2690 deg Mean motion: 13.53006470 rev/day Decay rate: 1.6e-07 rev/day^2 Epoch rev: 84585 Checksum: 332
Satellite: SO-33 Catalog number: 25509 Epoch time: 13275.82709870 Element set: 595 Inclination: 031.4303 deg RA of node: 178.1463 deg Eccentricity: 0.0350795 Arg of perigee: 020.3341 deg Mean anomaly: 032.4595 deg Mean motion: 14.29140531 rev/day Decay rate: 7.33e-06 rev/day^2 Epoch rev: 78030 Checksum: 290
Satellite: RS-22 Catalog number: 27939 Epoch time: 13276.74630419 Element set: 822 Inclination: 097.7972 deg RA of node: 098.9471 deg Eccentricity: 0.0012681 Arg of perigee: 198.9857 deg Mean anomaly: 161.0876 deg Mean motion: 14.64585877 rev/day Decay rate: 5.71e-06 rev/day^2 Epoch rev: 53518 Checksum: 372
Satellite: VO-52 Catalog number: 28650 Epoch time: 13275.79918507 Element set: 542 Inclination: 097.5657 deg RA of node: 288.8828 deg Eccentricity: 0.0024109 Arg of perigee: 286.5230 deg Mean anomaly: 126.4130 deg Mean motion: 14.84164433 rev/day Decay rate: 1.275e-05 rev/day^2 Epoch rev: 45504 Checksum: 325
Satellite: HO-68 Catalog number: 36122 Epoch time: 13276.66379225 Element set: 956 Inclination: 100.2924 deg RA of node: 330.9126 deg Eccentricity: 0.0007731 Arg of perigee: 105.2603 deg Mean anomaly: 254.9364 deg Mean motion: 13.16307202 rev/day Decay rate: -4.4e-07 rev/day^2 Epoch rev: 18268 Checksum: 287
/EX SB KEPS @ AMSAT $ORB13276.D Orbital Elements 13276.MICROS
HR AMSAT ORBITAL ELEMENTS FOR THE MICROSATS FROM WA5QGD FORT WORTH,TX October 3, 2013 BID: ORB13276.D TO ALL RADIO AMATEURS BT
Satellite: UO-11 Catalog number: 14781 Epoch time: 13276.14328890 Element set: 301 Inclination: 097.8903 deg RA of node: 335.8460 deg Eccentricity: 0.0007438 Arg of perigee: 300.0469 deg Mean anomaly: 060.0005 deg Mean motion: 14.81025529 rev/day Decay rate: 5.61e-06 rev/day^2 Epoch rev: 58991 Checksum: 292
Satellite: AO-16 Catalog number: 20439 Epoch time: 13276.78956532 Element set: 854 Inclination: 098.4799 deg RA of node: 214.3334 deg Eccentricity: 0.0010832 Arg of perigee: 191.3700 deg Mean anomaly: 227.3972 deg Mean motion: 14.32209563 rev/day Decay rate: 1.05e-06 rev/day^2 Epoch rev: 23778 Checksum: 317
Satellite: LO-19 Catalog number: 20442 Epoch time: 13275.43053509 Element set: 791 Inclination: 098.4496 deg RA of node: 214.4511 deg Eccentricity: 0.0011908 Arg of perigee: 185.8505 deg Mean anomaly: 312.5973 deg Mean motion: 14.32418181 rev/day Decay rate: 1.24e-06 rev/day^2 Epoch rev: 23778 Checksum: 302
Satellite: AO-27 Catalog number: 22825 Epoch time: 13276.70130911 Element set: 493 Inclination: 098.6291 deg RA of node: 219.6262 deg Eccentricity: 0.0007719 Arg of perigee: 337.2113 deg Mean anomaly: 141.6291 deg Mean motion: 14.29593316 rev/day Decay rate: 7.8e-07 rev/day^2 Epoch rev: 4413 Checksum: 297
Satellite: IO-26 Catalog number: 22826 Epoch time: 13274.84840500 Element set: 247 Inclination: 098.6230 deg RA of node: 218.0563 deg Eccentricity: 0.0008219 Arg of perigee: 335.0202 deg Mean anomaly: 084.4126 deg Mean motion: 14.29880209 rev/day Decay rate: 8.9e-07 rev/day^2 Epoch rev: 4400 Checksum: 279
Satellite: GO-32 Catalog number: 25397 Epoch time: 13276.46423163 Element set: 175 Inclination: 098.4306 deg RA of node: 239.5866 deg Eccentricity: 0.0001243 Arg of perigee: 040.2558 deg Mean anomaly: 109.1936 deg Mean motion: 14.23361306 rev/day Decay rate: 3.9e-07 rev/day^2 Epoch rev: 79134 Checksum: 300
Satellite: NO-44 Catalog number: 26931 Epoch time: 13276.60851662 Element set: 433 Inclination: 067.0528 deg RA of node: 340.0064 deg Eccentricity: 0.0007557 Arg of perigee: 265.9949 deg Mean anomaly: 245.0968 deg Mean motion: 14.29963159 rev/day Decay rate: 4.3e-07 rev/day^2 Epoch rev: 62692 Checksum: 331
Satellite: SO-50 Catalog number: 27607 Epoch time: 13276.05603549 Element set: 187 Inclination: 064.5563 deg RA of node: 295.7165 deg Eccentricity: 0.0034160 Arg of perigee: 122.3696 deg Mean anomaly: 262.3834 deg Mean motion: 14.73091742 rev/day Decay rate: 4.53e-06 rev/day^2 Epoch rev: 57960 Checksum: 316
Satellite: CO-55 Catalog number: 27844 Epoch time: 13276.63031858 Element set: 755 Inclination: 098.7023 deg RA of node: 284.1340 deg Eccentricity: 0.0008615 Arg of perigee: 298.2071 deg Mean anomaly: 182.5658 deg Mean motion: 14.21276387 rev/day Decay rate: 1.44e-06 rev/day^2 Epoch rev: 53213 Checksum: 314
Satellite: CO-57 Catalog number: 27848 Epoch time: 13276.58161846 Element set: 698 Inclination: 098.7111 deg RA of node: 283.6562 deg Eccentricity: 0.0008557 Arg of perigee: 305.3479 deg Mean anomaly: 175.8920 deg Mean motion: 14.20994794 rev/day Decay rate: 1.31e-06 rev/day^2 Epoch rev: 53205 Checksum: 348
Satellite: AO-51 Catalog number: 28375 Epoch time: 13276.76884971 Element set: 669 Inclination: 098.2155 deg RA of node: 227.9394 deg Eccentricity: 0.0084214 Arg of perigee: 048.4137 deg Mean anomaly: 013.2612 deg Mean motion: 14.41165559 rev/day Decay rate: 2.02e-06 rev/day^2 Epoch rev: 48697 Checksum: 337
Satellite: CP3 Catalog number: 31129 Epoch time: 13276.80978306 Element set: 568 Inclination: 097.9082 deg RA of node: 263.3766 deg Eccentricity: 0.0101400 Arg of perigee: 089.5176 deg Mean anomaly: 029.5815 deg Mean motion: 14.53821420 rev/day Decay rate: 6.14e-06 rev/day^2 Epoch rev: 34277 Checksum: 311
Satellite: CO-65 Catalog number: 32785 Epoch time: 13276.79657934 Element set: 753 Inclination: 097.7383 deg RA of node: 331.1762 deg Eccentricity: 0.0012869 Arg of perigee: 314.1622 deg Mean anomaly: 110.2827 deg Mean motion: 14.84136685 rev/day Decay rate: 8.37e-06 rev/day^2 Epoch rev: 29398 Checksum: 351
Satellite: PRISM Catalog number: 33493 Epoch time: 13276.80574827 Element set: 234 Inclination: 098.2297 deg RA of node: 077.4502 deg Eccentricity: 0.0017874 Arg of perigee: 196.1363 deg Mean anomaly: 163.9289 deg Mean motion: 14.86553108 rev/day Decay rate: 4.588e-05 rev/day^2 Epoch rev: 25405 Checksum: 337
Satellite: SOHLA-1 Catalog number: 33496 Epoch time: 13276.48369049 Element set: 163 Inclination: 098.1464 deg RA of node: 032.2904 deg Eccentricity: 0.0005811 Arg of perigee: 348.2956 deg Mean anomaly: 139.8935 deg Mean motion: 14.70380190 rev/day Decay rate: 3.11e-06 rev/day^2 Epoch rev: 25178 Checksum: 311
Satellite: SO-67 Catalog number: 35870 Epoch time: 13276.84318638 Element set: 480 Inclination: 097.1842 deg RA of node: 301.7410 deg Eccentricity: 0.0001010 Arg of perigee: 024.5160 deg Mean anomaly: 096.5922 deg Mean motion: 15.28143304 rev/day Decay rate: 6.980e-05 rev/day^2 Epoch rev: 22484 Checksum: 291
Satellite: TISAT-1 Catalog number: 36799 Epoch time: 13276.84414735 Element set: 501 Inclination: 098.0303 deg RA of node: 002.1815 deg Eccentricity: 0.0015802 Arg of perigee: 078.0028 deg Mean anomaly: 282.2930 deg Mean motion: 14.83703664 rev/day Decay rate: 2.823e-05 rev/day^2 Epoch rev: 17468 Checksum: 295
Satellite: STUDSAT Catalog number: 36801 Epoch time: 13276.17150304 Element set: 689 Inclination: 098.0438 deg RA of node: 005.7213 deg Eccentricity: 0.0011794 Arg of perigee: 059.6550 deg Mean anomaly: 358.7801 deg Mean motion: 14.89597408 rev/day Decay rate: 1.2788e-04 rev/day^2 Epoch rev: 17478 Checksum: 330
Satellite: ALMASAT-1 Catalog number: 38078 Epoch time: 13276.54125693 Element set: 666 Inclination: 069.4777 deg RA of node: 308.6277 deg Eccentricity: 0.0677580 Arg of perigee: 007.4362 deg Mean anomaly: 353.6231 deg Mean motion: 14.29491958 rev/day Decay rate: 3.0639e-04 rev/day^2 Epoch rev: 8470 Checksum: 350
Satellite: XATCOBEO Catalog number: 38082 Epoch time: 13276.76913528 Element set: 550 Inclination: 069.4698 deg RA of node: 269.2472 deg Eccentricity: 0.0520079 Arg of perigee: 345.8585 deg Mean anomaly: 012.8718 deg Mean motion: 14.69932785 rev/day Decay rate: 1.19912e-03 rev/day^2 Epoch rev: 8580 Checksum: 357
Satellite: SOMP Catalog number: 39135 Epoch time: 13276.84220979 Element set: 342 Inclination: 064.8772 deg RA of node: 227.1986 deg Eccentricity: 0.0001959 Arg of perigee: 279.2084 deg Mean anomaly: 080.8863 deg Mean motion: 15.00957597 rev/day Decay rate: 4.428e-05 rev/day^2 Epoch rev: 2513 Checksum: 333
Satellite: CUBEBUG-1 Catalog number: 39153 Epoch time: 13276.83363537 Element set: 461 Inclination: 098.0661 deg RA of node: 352.5502 deg Eccentricity: 0.0019745 Arg of perigee: 095.6079 deg Mean anomaly: 264.7338 deg Mean motion: 14.76635918 rev/day Decay rate: 1.372e-05 rev/day^2 Epoch rev: 2371 Checksum: 322
Satellite: ESTCUBE-1 Catalog number: 39161 Epoch time: 13276.80245754 Element set: 421 Inclination: 098.1209 deg RA of node: 354.4563 deg Eccentricity: 0.0011005 Arg of perigee: 125.0253 deg Mean anomaly: 235.1994 deg Mean motion: 14.69134873 rev/day Decay rate: 1.733e-05 rev/day^2 Epoch rev: 2194 Checksum: 284
/EX SB KEPS @ AMSAT $ORB13276.W Orbital Elements 13276.WEATHER
HR AMSAT ORBITAL ELEMENTS FOR WEATHER SATELLITES FROM WA5QGD FORT WORTH,TX October 3, 2013 BID: ORB13276.W TO ALL RADIO AMATEURS BT
Satellite: NOAA-10 Catalog number: 16969 Epoch time: 13276.55904697 Element set: 518 Inclination: 098.5379 deg RA of node: 301.9993 deg Eccentricity: 0.0011077 Arg of perigee: 288.1112 deg Mean anomaly: 234.3592 deg Mean motion: 14.27667529 rev/day Decay rate: 3.6e-07 rev/day^2 Epoch rev: 40740 Checksum: 336
